Regional Weather Roundup
Issued by NWS

Home | Current Version | Previous Version | Text Only | Print | Product List | Glossary Off
Versions: 1 2 3 4 5 6 7 8 9 10 11 12 13 14 15 16 17 18 19 20 21 22 23 24 25 26 27 28 29 30 31 32 33 34 35 36 37 38 39 40 41 42 43 44 45 46 47 48 49 50

000
ASUS43 KIND 300159
RWRIN

WEATHER ROUNDUP FOR INDIANA
NATIONAL WEATHER SERVICE INDIANAPOLIS IN
1000 PM EDT MON JUN 29 2015

NOTE: "FAIR" INDICATES FEW OR NO CLOUDS BELOW 12,000 FEET WITH NO
SIGNIFICANT WEATHER AND/OR OBSTRUCTIONS TO VISIBILITY.

* - STATION DOES NOT REPORT WEATHER SUCH AS PRECIPITATION OR FOG.

+ - STATION NOT QUALITY CONTROLLED BY THE NATIONAL WEATHER SERVICE.
    USE DATA WITH CAUTION...ESPECIALLY DEWPOINT AND RELATIVE
    HUMIDITY OBSERVATIONS.

INZ001>003-010>013-019-020-300300-
NORTHWEST INDIANA

CITY           SKY/WX    TMP DP  RH WIND       PRES   REMARKS
GARY /AIRPORT/ PTCLDY    68  68 100 CALM      29.80F
MONTICELLO +   PTCLDY    66  66 100 CALM      29.80S
RENSSELAER +   PTCLDY    66  66 100 CALM      29.82S
VALPARAISO     PTCLDY    66  63  90 E6        29.81F

$$

LMZ046-743>745-300300-
SOUTHERN LAKE MICHIGAN

STATION/POSITION TIME  TEMP    WIND        PRES    WAVE
                       AIR SEA DIR/SP/G            HT
                 (UTC) (F)     (DEG/KT/KT) (MB)    (FT)
BURNS HARBOR     0100   67      70/  6/  7 1009.8S
MICHIGAN CITY    0100   68      70/  3/  5   N/A
5NW MICH CITY    0100   66 66  100/  2/  4   N/A     0

$$

INZ004-005-014>016-021>024-300300-
NORTH CENTRAL INDIANA

CITY           SKY/WX    TMP DP  RH WIND       PRES   REMARKS
GOSHEN         CLEAR     61  58  90 E5        29.83S
PERU/GRISSOM   MOCLDY    66  63  88 E5        29.81R
SOUTH BEND     MOCLDY    65  59  81 E7        29.83S

$$

INZ006>009-017-018-025>027-300300-
NORTHEAST INDIANA

CITY           SKY/WX    TMP DP  RH WIND       PRES   REMARKS
ANGOLA *+      CLOUDY    63  52  67 CALM      29.84S
FORT WAYNE     CLOUDY    64  60  87 N3        29.83F

$$

INZ028-029-035-036-043>045-051>053-300300-
WEST CENTRAL INDIANA

CITY           SKY/WX    TMP DP  RH WIND       PRES   REMARKS
CRAWFORDSVL +  CLOUDY    64  62  94 CALM      29.83R
GREENCASTLE +  LGT RAIN  66  61  82 CALM      29.84S
LAFAYETTE      PTCLDY    65  64  97 W3        29.81R
TERRE HAUTE    MOCLDY    72  65  78 W7        29.83R

$$

INZ030>032-037>040-046>048-054>057-064-065-300300-
CENTRAL INDIANA

CITY           SKY/WX    TMP DP  RH WIND       PRES   REMARKS
GREENWOOD *+   CLOUDY    70  63  78 W5        29.83S
INDIANAPOLIS   MOCLDY    70  64  81 W9        29.81S
-EAGLE CREEK   MOCLDY    70  65  84 SW3       29.81S
KOKOMO *+      MOCLDY    64  61  88 E5        29.82R
MT COMFORT *+  MOCLDY    66 N/A N/A CALM      29.82S
SHELBYVILLE    MOCLDY    71  67  87 S3        29.81S

$$

INZ033-034-041-042-049-050-058-059-300300-
EAST CENTRAL INDIANA

CITY           SKY/WX    TMP DP  RH WIND       PRES   REMARKS
MUNCIE         MOCLDY    67  62  84 E5        29.82S

$$

INZ060-061-067>069-081>083-085>088-300300-
SOUTHWEST INDIANA

CITY           SKY/WX    TMP DP  RH WIND       PRES   REMARKS
EVANSVILLE     CLEAR     75  63  66 W3        29.86R
HUNTINGBURG *+ CLEAR     72  63  73 W3        29.85S

$$

INZ062-063-066-070>080-084-089>092-300300-
SOUTH CENTRAL AND SOUTHEAST INDIANA

CITY           SKY/WX    TMP DP  RH WIND       PRES   REMARKS
BLOOMINGTON    PTCLDY    71  65  81 W6        29.83S
MADISON *+     MOCLDY    72  63  73 SW6       29.86R
SEYMOUR +      MOCLDY    73  66  78 W7        29.82F

$$




USA.gov is the U.S. government's official web portal to all federal, state and local government web resources and services.